| time (UTC) | temp C | wind direction | speed KPH | gust KPH | rain 1hr cm | rain 24hr cm | rain mn cm | humidity % | barometer mb |
| 20260505101823 | 13 | 120 | 1.6 | 0.0 | 0.00 | 0.00 | 0.00 | 87 | 1013.2 |
| 20260505101318 | 13 | 120 | 1.6 | 0.0 | 0.00 | 0.00 | 0.00 | 88 | 1013.2 |
| 20260505100836 | 13 | 120 | 1.6 | 0.0 | 0.00 | 0.00 | 0.00 | 87 | 1013.1 |
| 20260505100325 | 13 | 120 | 1.6 | 0.0 | 0.00 | 0.00 | 0.00 | 87 | 1013.1 |
| 20260505095819 | 13 | 120 | 3.2 | 0.0 | 0.00 | 0.00 | 0.00 | 86 | 1013.2 |
| 20260505095336 | 13 | 120 | 1.6 | 0.0 | 0.00 | 0.00 | 0.00 | 86 | 1013.2 |
| 20260505094824 | 13 | 120 | 1.6 | 0.0 | 0.00 | 0.00 | 0.00 | 86 | 1013.2 |
| 20260505094318 | 14 | 120 | 1.6 | 0.0 | 0.00 | 0.00 | 0.00 | 86 | 1013.2 |
| 20260505093834 | 14 | 120 | 1.6 | 0.0 | 0.00 | 0.00 | 0.00 | 86 | 1013.1 |
| 20260505093331 | 14 | 120 | 1.6 | 0.0 | 0.00 | 0.00 | 0.00 | 85 | 1013.0 |
| 20260505092845 | 14 | 120 | 1.6 | 0.0 | 0.00 | 0.00 | 0.00 | 85 | 1012.9 |
| 20260505092342 | 14 | 120 | 1.6 | 0.0 | 0.00 | 0.00 | 0.00 | 85 | 1012.8 |
| 20260505091831 | 14 | 120 | 1.6 | 0.0 | 0.00 | 0.00 | 0.00 | 84 | 1012.8 |
| 20260505091339 | 15 | 120 | 1.6 | 0.0 | 0.00 | 0.00 | 0.00 | 84 | 1012.8 |
| 20260505090836 | 15 | 120 | 3.2 | 0.0 | 0.00 | 0.00 | 0.00 | 84 | 1012.8 |
| 20260505090341 | 15 | 120 | 3.2 | 0.0 | 0.00 | 0.00 | 0.00 | 84 | 1012.7 |
| 20260505085842 | 15 | 167 | 3.2 | 0.0 | 0.00 | 0.00 | 0.00 | 83 | 1012.5 |
| 20260505085338 | 15 | 167 | 3.2 | 0.0 | 0.00 | 0.00 | 0.00 | 83 | 1012.5 |
| 20260505084826 | 15 | 167 | 3.2 | 0.0 | 0.00 | 0.00 | 0.00 | 83 | 1012.4 |
| 20260505084322 | 15 | 167 | 3.2 | 0.0 | 0.00 | 0.00 | 0.00 | 83 | 1012.4 |
| 20260505083820 | 15 | 173 | 1.6 | 0.0 | 0.00 | 0.00 | 0.00 | 83 | 1012.4 |
| 20260505083331 | 15 | 173 | 1.6 | 0.0 | 0.00 | 0.00 | 0.00 | 83 | 1012.4 |
| 20260505082848 | 15 | 173 | 3.2 | 0.0 | 0.00 | 0.00 | 0.00 | 82 | 1012.3 |
| 20260505082343 | 15 | 173 | 3.2 | 0.0 | 0.00 | 0.00 | 0.00 | 83 | 1012.4 |
| 20260505081817 | 15 | 153 | 3.2 | 0.0 | 0.00 | 0.00 | 0.00 | 83 | 1012.3 |
| 20260505081314 | 15 | 153 | 3.2 | 0.0 | 0.00 | 0.00 | 0.00 | 83 | 1012.4 |
| 20260505080853 | 15 | 153 | 1.6 | 0.0 | 0.00 | 0.00 | 0.00 | 83 | 1012.4 |
| 20260505080331 | 15 | 153 | 1.6 | 0.0 | 0.00 | 0.00 | 0.00 | 82 | 1012.4 |
| 20260505075850 | 15 | 153 | 1.6 | 0.0 | 0.00 | 0.00 | 0.00 | 82 | 1012.5 |
| 20260505075345 | 15 | 153 | 1.6 | 0.0 | 0.00 | 0.00 | 0.00 | 82 | 1012.5 |
| 20260505074840 | 15 | 153 | 1.6 | 0.0 | 0.00 | 0.00 | 0.00 | 82 | 1012.5 |
| 20260505074338 | 15 | 153 | 1.6 | 0.0 | 0.00 | 0.00 | 0.00 | 81 | 1012.4 |
| 20260505073838 | 15 | 153 | 1.6 | 0.0 | 0.00 | 0.00 | 0.00 | 81 | 1012.4 |
| 20260505073326 | 15 | 153 | 1.6 | 0.0 | 0.00 | 0.00 | 0.00 | 80 | 1012.4 |
| 20260505072822 | 15 | 153 | 1.6 | 0.0 | 0.00 | 0.00 | 0.00 | 80 | 1012.6 |
| 20260505072319 | 16 | 153 | 1.6 | 0.0 | 0.00 | 0.00 | 0.00 | 79 | 1012.6 |
| 20260505071828 | 16 | 153 | 3.2 | 0.0 | 0.00 | 0.00 | 0.00 | 78 | 1012.6 |
| 20260505071332 | 16 | 153 | 3.2 | 0.0 | 0.00 | 0.00 | 0.00 | 76 | 1012.7 |
| 20260505070820 | 17 | 165 | 3.2 | 0.0 | 0.00 | 0.00 | 0.00 | 75 | 1012.8 |
| 20260505070335 | 17 | 165 | 1.6 | 0.0 | 0.00 | 0.00 | 0.00 | 74 | 1012.9 |
| 20260505065842 | 17 | 184 | 3.2 | 0.0 | 0.00 | 0.00 | 0.00 | 74 | 1013.0 |
| 20260505065326 | 17 | 184 | 3.2 | 0.0 | 0.00 | 0.00 | 0.00 | 74 | 1013.1 |
| 20260505064827 | 17 | 152 | 3.2 | 0.0 | 0.00 | 0.00 | 0.00 | 75 | 1013.2 |
| 20260505064323 | 17 | 151 | 3.2 | 0.0 | 0.00 | 0.00 | 0.00 | 75 | 1013.3 |
| 20260505063841 | 17 | 151 | 1.6 | 0.0 | 0.00 | 0.00 | 0.00 | 74 | 1013.4 |
| 20260505063330 | 17 | 151 | 1.6 | 0.0 | 0.00 | 0.00 | 0.00 | 73 | 1013.5 |
| 20260505062848 | 18 | 151 | 1.6 | 0.0 | 0.00 | 0.00 | 0.00 | 71 | 1013.5 |
| 20260505062316 | 18 | 151 | 3.2 | 0.0 | 0.00 | 0.00 | 0.00 | 70 | 1013.4 |
| 20260505061839 | 18 | 151 | 3.2 | 0.0 | 0.00 | 0.00 | 0.00 | 68 | 1013.5 |
| 20260505061315 | 18 | 169 | 3.2 | 0.0 | 0.00 | 0.00 | 0.00 | 68 | 1013.5 |
| 20260505060833 | 19 | 165 | 3.2 | 0.0 | 0.00 | 0.00 | 0.00 | 67 | 1013.6 |
| 20260505060325 | 18 | 171 | 1.6 | 0.0 | 0.00 | 0.00 | 0.00 | 68 | 1013.7 |
| 20260505055822 | 18 | 172 | 3.2 | 0.0 | 0.00 | 0.00 | 0.00 | 69 | 1013.7 |
| 20260505055339 | 18 | 174 | 3.2 | 0.0 | 0.00 | 0.00 | 0.00 | 72 | 1013.8 |
| 20260505054816 | 17 | 173 | 3.2 | 0.0 | 0.00 | 0.00 | 0.00 | 73 | 1013.8 |
| 20260505054333 | 17 | 173 | 3.2 | 0.0 | 0.00 | 0.00 | 0.00 | 74 | 1014.1 |
| 20260505053815 | 17 | 174 | 1.6 | 0.0 | 0.00 | 0.00 | 0.00 | 75 | 1014.0 |
| 20260505053325 | 17 | 144 | 1.6 | 0.0 | 0.00 | 0.00 | 0.00 | 75 | 1014.1 |
| 20260505052829 | 17 | 144 | 1.6 | 0.0 | 0.00 | 0.00 | 0.00 | 75 | 1013.9 |
| 20260505052318 | 17 | 144 | 1.6 | 0.0 | 0.00 | 0.00 | 0.00 | 75 | 1013.9 |
| 20260505051838 | 17 | 144 | 1.6 | 0.0 | 0.00 | 0.00 | 0.00 | 75 | 1013.9 |
| 20260505051337 | 17 | 144 | 1.6 | 0.0 | 0.00 | 0.00 | 0.00 | 74 | 1013.9 |
| 20260505050825 | 17 | 144 | 1.6 | 0.0 | 0.00 | 0.00 | 0.00 | 72 | 1013.8 |
| 20260505050320 | 18 | 144 | 1.6 | 0.0 | 0.00 | 0.00 | 0.00 | 71 | 1013.9 |
| 20260505041353 | 18 | 178 | 3.2 | 0.0 | 0.00 | 0.00 | 0.00 | 72 | 1014.1 |
| 20260505040818 | 18 | 154 | 3.2 | 0.0 | 0.00 | 0.00 | 0.00 | 72 | 1014.1 |
| 20260505040333 | 18 | 155 | 3.2 | 0.0 | 0.00 | 0.00 | 0.00 | 71 | 1014.2 |
| 20260505035837 | 18 | 155 | 1.6 | 0.0 | 0.00 | 0.00 | 0.00 | 71 | 1014.2 |
| 20260505035329 | 18 | 155 | 1.6 | 0.0 | 0.00 | 0.00 | 0.00 | 70 | 1014.2 |
| 20260505034818 | 18 | 155 | 1.6 | 0.0 | 0.00 | 0.00 | 0.00 | 70 | 1014.1 |
| 20260505034317 | 19 | 157 | 1.6 | 0.0 | 0.00 | 0.00 | 0.00 | 69 | 1014.0 |
| 20260505033831 | 18 | 157 | 1.6 | 0.0 | 0.00 | 0.00 | 0.00 | 70 | 1014.0 |
| 20260505033329 | 18 | 157 | 1.6 | 0.0 | 0.00 | 0.00 | 0.00 | 70 | 1013.9 |
| 20260505032826 | 18 | 157 | 1.6 | 0.0 | 0.00 | 0.00 | 0.00 | 71 | 1014.2 |
| 20260505032314 | 18 | 159 | 1.6 | 0.0 | 0.00 | 0.00 | 0.00 | 71 | 1014.2 |
| 20260505031831 | 18 | 159 | 1.6 | 0.0 | 0.00 | 0.00 | 0.00 | 71 | 1014.2 |
| 20260505031325 | 18 | 159 | 1.6 | 0.0 | 0.00 | 0.00 | 0.00 | 71 | 1014.1 |
| 20260505030822 | 18 | 159 | 3.2 | 0.0 | 0.00 | 0.00 | 0.00 | 70 | 1014.1 |
| 20260505030323 | 18 | 159 | 1.6 | 0.0 | 0.00 | 0.00 | 0.00 | 70 | 1014.0 |
| 20260505025828 | 18 | 159 | 1.6 | 0.0 | 0.00 | 0.00 | 0.00 | 71 | 1014.1 |
| 20260505025319 | 18 | 159 | 1.6 | 0.0 | 0.00 | 0.00 | 0.00 | 70 | 1014.1 |
| 20260505024819 | 19 | 159 | 1.6 | 0.0 | 0.00 | 0.00 | 0.00 | 69 | 1014.1 |
| 20260505024314 | 20 | 182 | 3.2 | 0.0 | 0.00 | 0.00 | 0.00 | 68 | 1014.0 |
| 20260505023848 | 20 | 182 | 3.2 | 0.0 | 0.00 | 0.00 | 0.00 | 67 | 1013.9 |
| 20260505023343 | 20 | 194 | 3.2 | 0.0 | 0.00 | 0.00 | 0.00 | 66 | 1014.0 |
| 20260505022817 | 20 | 195 | 3.2 | 0.0 | 0.00 | 0.00 | 0.00 | 66 | 1014.0 |
| 20260505022330 | 20 | 161 | 3.2 | 0.0 | 0.00 | 0.00 | 0.00 | 66 | 1014.0 |
| 20260505021844 | 20 | 146 | 3.2 | 0.0 | 0.00 | 0.00 | 0.00 | 66 | 1013.9 |
| 20260505021326 | 20 | 164 | 3.2 | 0.0 | 0.00 | 0.00 | 0.00 | 65 | 1014.0 |
| 20260505020903 | 20 | 185 | 3.2 | 0.0 | 0.00 | 0.00 | 0.00 | 65 | 1013.9 |
| 20260505020400 | 20 | 162 | 3.2 | 0.0 | 0.00 | 0.00 | 0.00 | 64 | 1014.1 |
| 20260505015851 | 20 | 173 | 3.2 | 0.0 | 0.00 | 0.00 | 0.00 | 64 | 1014.0 |
| 20260505015328 | 20 | 182 | 3.2 | 0.0 | 0.00 | 0.00 | 0.00 | 64 | 1014.1 |
| 20260505014817 | 20 | 194 | 4.8 | 0.0 | 0.00 | 0.00 | 0.00 | 63 | 1014.0 |
| 20260505014315 | 20 | 143 | 6.4 | 0.0 | 0.00 | 0.00 | 0.00 | 62 | 1014.1 |
| 20260505013900 | 20 | 153 | 4.8 | 0.0 | 0.00 | 0.00 | 0.00 | 62 | 1014.3 |
| 20260505013326 | 20 | 162 | 4.8 | 0.0 | 0.00 | 0.00 | 0.00 | 62 | 1014.4 |
| 20260505012824 | 21 | 162 | 4.8 | 0.0 | 0.00 | 0.00 | 0.00 | 61 | 1014.4 |
| 20260505012318 | 21 | 189 | 6.4 | 0.0 | 0.00 | 0.00 | 0.00 | 61 | 1014.4 |
| 20260505011839 | 20 | 192 | 4.8 | 0.0 | 0.00 | 0.00 | 0.00 | 61 | 1014.3 |
| 20260505011326 | 21 | 188 | 4.8 | 0.0 | 0.00 | 0.00 | 0.00 | 60 | 1014.3 |
| 20260505010824 | 21 | 188 | 4.8 | 0.0 | 0.00 | 0.00 | 0.00 | 60 | 1014.2 |
| 20260505010313 | 21 | 169 | 4.8 | 0.0 | 0.00 | 0.00 | 0.00 | 59 | 1014.3 |
| 20260505005838 | 21 | 182 | 4.8 | 0.0 | 0.00 | 0.00 | 0.00 | 59 | 1014.3 |
| 20260505005325 | 21 | 167 | 6.4 | 0.0 | 0.00 | 0.00 | 0.00 | 58 | 1014.4 |
| 20260505004820 | 21 | 159 | 6.4 | 0.0 | 0.00 | 0.00 | 0.00 | 56 | 1014.4 |
| 20260505004317 | 21 | 163 | 6.4 | 0.0 | 0.00 | 0.00 | 0.00 | 56 | 1014.4 |
| 20260505003832 | 21 | 194 | 6.4 | 0.0 | 0.00 | 0.00 | 0.00 | 57 | 1014.3 |
| 20260505003324 | 21 | 204 | 6.4 | 0.0 | 0.00 | 0.00 | 0.00 | 56 | 1014.2 |
| 20260505002819 | 21 | 178 | 8.0 | 0.0 | 0.00 | 0.00 | 0.00 | 56 | 1014.3 |
| 20260505002325 | 21 | 162 | 6.4 | 0.0 | 0.00 | 0.00 | 0.00 | 56 | 1014.4 |
| 20260505001823 | 21 | 177 | 6.4 | 0.0 | 0.00 | 0.00 | 0.00 | 55 | 1014.3 |
| 20260505001317 | 21 | 198 | 8.0 | 0.0 | 0.00 | 0.00 | 0.00 | 54 | 1014.2 |
| 20260505000855 | 22 | 198 | 8.0 | 0.0 | 0.00 | 0.00 | 0.00 | 55 | 1014.2 |
| 20260505000323 | 22 | 198 | 8.0 | 0.0 | 0.00 | 0.00 | 0.00 | 58 | 1014.3 |
| 20260504235817 | 22 | 222 | 8.0 | 0.0 | 0.00 | 0.00 | 0.00 | 58 | 1014.3 |
| 20260504235330 | 22 | 213 | 8.0 | 0.0 | 0.00 | 0.00 | 0.00 | 57 | 1014.3 |
| 20260504234827 | 22 | 268 | 8.0 | 0.0 | 0.00 | 0.00 | 0.00 | 55 | 1014.5 |
| 20260504234327 | 22 | 210 | 9.7 | 0.0 | 0.00 | 0.00 | 0.00 | 55 | 1014.5 |
| 20260504233824 | 22 | 199 | 8.0 | 0.0 | 0.00 | 0.00 | 0.00 | 53 | 1014.4 |
| 20260504233330 | 22 | 197 | 8.0 | 0.0 | 0.00 | 0.00 | 0.00 | 54 | 1014.4 |
| 20260504232831 | 22 | 210 | 8.0 | 0.0 | 0.00 | 0.00 | 0.00 | 56 | 1014.3 |
| 20260504232346 | 22 | 176 | 8.0 | 0.0 | 0.00 | 0.00 | 0.00 | 53 | 1014.3 |
| 20260504231814 | 22 | 207 | 8.0 | 0.0 | 0.00 | 0.00 | 0.00 | 53 | 1014.3 |
| 20260504231311 | 22 | 207 | 9.7 | 0.0 | 0.00 | 0.00 | 0.00 | 53 | 1014.3 |
| 20260504230829 | 22 | 211 | 8.0 | 0.0 | 0.00 | 0.00 | 0.00 | 58 | 1014.4 |
| 20260504230329 | 22 | 202 | 8.0 | 0.0 | 0.00 | 0.00 | 0.00 | 52 | 1014.4 |
| 20260504225825 | 22 | 200 | 8.0 | 0.0 | 0.00 | 0.00 | 0.00 | 52 | 1014.5 |
| 20260504225331 | 22 | 200 | 8.0 | 0.0 | 0.00 | 0.00 | 0.00 | 51 | 1014.4 |
| 20260504224831 | 22 | 201 | 8.0 | 0.0 | 0.00 | 0.00 | 0.00 | 54 | 1014.5 |
| 20260504224330 | 22 | 192 | 8.0 | 0.0 | 0.00 | 0.00 | 0.00 | 52 | 1014.5 |
| 20260504223827 | 22 | 200 | 8.0 | 0.0 | 0.00 | 0.00 | 0.00 | 51 | 1014.5 |
| 20260504223316 | 22 | 179 | 8.0 | 0.0 | 0.00 | 0.00 | 0.00 | 52 | 1014.3 |
| 20260504222840 | 22 | 211 | 9.7 | 0.0 | 0.00 | 0.00 | 0.00 | 50 | 1014.4 |
| 20260504222331 | 22 | 206 | 9.7 | 0.0 | 0.00 | 0.00 | 0.00 | 54 | 1014.5 |
| 20260504221846 | 22 | 149 | 9.7 | 0.0 | 0.00 | 0.00 | 0.00 | 51 | 1014.6 |
| 20260504221319 | 22 | 214 | 8.0 | 0.0 | 0.00 | 0.00 | 0.00 | 51 | 1014.6 |
| 20260504220815 | 22 | 145 | 8.0 | 0.0 | 0.00 | 0.00 | 0.00 | 50 | 1014.5 |
| 20260504220322 | 22 | 202 | 9.7 | 0.0 | 0.00 | 0.00 | 0.00 | 51 | 1014.5 |
| 20260504215842 | 22 | 207 | 9.7 | 0.0 | 0.00 | 0.00 | 0.00 | 49 | 1014.5 |
| 20260504215329 | 23 | 216 | 9.7 | 0.0 | 0.00 | 0.00 | 0.00 | 48 | 1014.6 |
| 20260504214847 | 23 | 205 | 9.7 | 0.0 | 0.00 | 0.00 | 0.00 | 49 | 1014.5 |
| 20260504214322 | 23 | 169 | 8.0 | 0.0 | 0.00 | 0.00 | 0.00 | 48 | 1014.4 |
| 20260504213819 | 23 | 194 | 8.0 | 0.0 | 0.00 | 0.00 | 0.00 | 48 | 1014.5 |
| 20260504213325 | 23 | 201 | 9.7 | 0.0 | 0.00 | 0.00 | 0.00 | 50 | 1014.6 |
| 20260504212834 | 23 | 177 | 9.7 | 0.0 | 0.00 | 0.00 | 0.00 | 47 | 1014.6 |
| 20260504212321 | 23 | 194 | 9.7 | 0.0 | 0.00 | 0.00 | 0.00 | 48 | 1014.7 |
| 20260504211838 | 23 | 194 | 9.7 | 0.0 | 0.00 | 0.00 | 0.00 | 48 | 1014.7 |
| 20260504211333 | 23 | 186 | 9.7 | 0.0 | 0.00 | 0.00 | 0.00 | 46 | 1014.8 |
| 20260504210822 | 23 | 184 | 9.7 | 0.0 | 0.00 | 0.00 | 0.00 | 47 | 1014.7 |
| 20260504210343 | 23 | 205 | 9.7 | 0.0 | 0.00 | 0.00 | 0.00 | 49 | 1014.5 |
| 20260504205813 | 23 | 192 | 9.7 | 0.0 | 0.00 | 0.00 | 0.00 | 48 | 1014.6 |
| 20260504205311 | 23 | 161 | 9.7 | 0.0 | 0.00 | 0.00 | 0.00 | 49 | 1014.6 |
| 20260504204834 | 23 | 180 | 9.7 | 0.0 | 0.00 | 0.00 | 0.00 | 47 | 1014.6 |
| 20260504204315 | 23 | 196 | 9.7 | 0.0 | 0.00 | 0.00 | 0.00 | 47 | 1014.6 |
| 20260504203823 | 23 | 188 | 11.3 | 0.0 | 0.00 | 0.00 | 0.00 | 47 | 1014.6 |
| 20260504203320 | 23 | 196 | 11.3 | 0.0 | 0.00 | 0.00 | 0.00 | 47 | 1014.7 |
| 20260504202842 | 23 | 171 | 11.3 | 0.0 | 0.00 | 0.00 | 0.00 | 48 | 1014.9 |
| 20260504202326 | 23 | 217 | 11.3 | 0.0 | 0.00 | 0.00 | 0.00 | 47 | 1014.9 |
| 20260504201844 | 23 | 200 | 11.3 | 0.0 | 0.00 | 0.00 | 0.00 | 46 | 1014.9 |
| 20260504201315 | 23 | 186 | 11.3 | 0.0 | 0.00 | 0.00 | 0.00 | 47 | 1014.8 |
| 20260504200832 | 23 | 127 | 11.3 | 0.0 | 0.00 | 0.00 | 0.00 | 46 | 1014.8 |
| 20260504200322 | 23 | 192 | 9.7 | 0.0 | 0.00 | 0.00 | 0.00 | 45 | 1014.9 |
| 20260504195828 | 23 | 200 | 9.7 | 0.0 | 0.00 | 0.00 | 0.00 | 46 | 1015.1 |
| 20260504195331 | 23 | 196 | 9.7 | 0.0 | 0.00 | 0.00 | 0.00 | 46 | 1015.1 |
| 20260504194826 | 23 | 184 | 9.7 | 0.0 | 0.00 | 0.00 | 0.00 | 46 | 1015.2 |
| 20260504194324 | 23 | 205 | 9.7 | 0.0 | 0.00 | 0.00 | 0.00 | 47 | 1015.2 |
| 20260504193842 | 23 | 203 | 9.7 | 0.0 | 0.00 | 0.00 | 0.00 | 48 | 1015.4 |
| 20260504193328 | 23 | 215 | 9.7 | 0.0 | 0.00 | 0.00 | 0.00 | 47 | 1015.4 |
| 20260504192824 | 23 | 219 | 8.0 | 0.0 | 0.00 | 0.00 | 0.00 | 45 | 1015.3 |
| 20260504192322 | 23 | 182 | 8.0 | 0.0 | 0.00 | 0.00 | 0.00 | 49 | 1015.5 |
| 20260504191838 | 23 | 204 | 9.7 | 0.0 | 0.00 | 0.00 | 0.00 | 47 | 1015.6 |
| 20260504191318 | 23 | 178 | 8.0 | 0.0 | 0.00 | 0.00 | 0.00 | 44 | 1015.6 |
| 20260504190820 | 23 | 203 | 6.4 | 0.0 | 0.00 | 0.00 | 0.00 | 45 | 1015.8 |
| 20260504190314 | 23 | 198 | 8.0 | 0.0 | 0.00 | 0.00 | 0.00 | 41 | 1015.9 |
| 20260504185837 | 23 | 191 | 8.0 | 0.0 | 0.00 | 0.00 | 0.00 | 42 | 1015.9 |
| 20260504185325 | 23 | 223 | 8.0 | 0.0 | 0.00 | 0.00 | 0.00 | 43 | 1015.9 |
| 20260504184819 | 23 | 221 | 8.0 | 0.0 | 0.00 | 0.00 | 0.00 | 45 | 1015.9 |
| 20260504184315 | 23 | 196 | 8.0 | 0.0 | 0.00 | 0.00 | 0.00 | 43 | 1016.0 |
| 20260504183833 | 23 | 225 | 8.0 | 0.0 | 0.00 | 0.00 | 0.00 | 43 | 1016.0 |
| 20260504183319 | 23 | 200 | 8.0 | 0.0 | 0.00 | 0.00 | 0.00 | 41 | 1016.1 |
| 20260504182813 | 23 | 212 | 8.0 | 0.0 | 0.00 | 0.00 | 0.00 | 42 | 1016.1 |
| 20260504182333 | 23 | 205 | 8.0 | 0.0 | 0.00 | 0.00 | 0.00 | 47 | 1016.1 |
| 20260504181834 | 23 | 208 | 9.7 | 0.0 | 0.00 | 0.00 | 0.00 | 44 | 1016.2 |
| 20260504181326 | 23 | 229 | 8.0 | 0.0 | 0.00 | 0.00 | 0.00 | 47 | 1016.2 |
| 20260504180840 | 23 | 229 | 8.0 | 0.0 | 0.00 | 0.00 | 0.00 | 47 | 1016.3 |
| 20260504180328 | 23 | 231 | 8.0 | 0.0 | 0.00 | 0.00 | 0.00 | 47 | 1016.2 |
| 20260504175812 | 23 | 257 | 6.4 | 0.0 | 0.00 | 0.00 | 0.00 | 45 | 1016.3 |
| 20260504175329 | 23 | 229 | 8.0 | 0.0 | 0.00 | 0.00 | 0.00 | 46 | 1016.4 |
| 20260504174817 | 23 | 219 | 8.0 | 0.0 | 0.00 | 0.00 | 0.00 | 45 | 1016.3 |
| 20260504174314 | 22 | 230 | 6.4 | 0.0 | 0.00 | 0.00 | 0.00 | 45 | 1016.4 |
| 20260504173832 | 22 | 236 | 6.4 | 0.0 | 0.00 | 0.00 | 0.00 | 52 | 1016.5 |
| 20260504173332 | 22 | 253 | 6.4 | 0.0 | 0.00 | 0.00 | 0.00 | 45 | 1016.5 |
| 20260504172825 | 22 | 229 | 6.4 | 0.0 | 0.00 | 0.00 | 0.00 | 48 | 1016.6 |
| 20260504172314 | 22 | 241 | 8.0 | 0.0 | 0.00 | 0.00 | 0.00 | 48 | 1016.7 |
| 20260504171832 | 22 | 236 | 8.0 | 0.0 | 0.00 | 0.00 | 0.00 | 48 | 1016.7 |
| 20260504171325 | 22 | 231 | 8.0 | 0.0 | 0.00 | 0.00 | 0.00 | 47 | 1016.7 |
| 20260504170823 | 22 | 238 | 8.0 | 0.0 | 0.00 | 0.00 | 0.00 | 49 | 1016.7 |
| 20260504170338 | 22 | 242 | 6.4 | 0.0 | 0.00 | 0.00 | 0.00 | 48 | 1016.7 |
| 20260504160330 | 22 | 202 | 6.4 | 0.0 | 0.00 | 0.00 | 0.00 | 49 | 1017.2 |
| 20260504150822 | 20 | 269 | 6.4 | 0.0 | 0.00 | 0.00 | 0.00 | 64 | 1017.7 |
| 20260504150343 | 20 | 259 | 4.8 | 0.0 | 0.00 | 0.00 | 0.00 | 63 | 1017.6 |
| 20260504141325 | 20 | 199 | 3.2 | 0.0 | 0.00 | 0.00 | 0.00 | 64 | 1017.8 |
| 20260504140822 | 20 | 196 | 3.2 | 0.0 | 0.00 | 0.00 | 0.00 | 63 | 1017.8 |
| 20260504140334 | 20 | 159 | 1.6 | 0.0 | 0.00 | 0.00 | 0.00 | 62 | 1017.8 |
| 20260504130331 | 18 | 146 | 1.6 | 0.0 | 0.00 | 0.00 | 0.00 | 66 | 1017.4 |
| 20260504110326 | 11 | 173 | 1.6 | 0.0 | 0.00 | 0.00 | 0.00 | 83 | 1016.8 |